GPS BIIR-12 (PRN 23)

Last updated on June 1, 2020, 5:09 a.m. UTC

1 28361U 04023A   20151.35674358  .00000089  00000-0  00000-0 0  9996
2 28361  54.0631 176.1806 0144104 235.4258 120.3242  2.00392649116730
UTC
Height (km)
Latitude
Longitude
Inclination
Orbital Period
UTC large
Height (km)
Speed (km/s)
/
Latitude / Longitude
Inclination (degrees)
Orbital Period (minutes)
Azimuth
Elevation
Range (km)
Doppler Factor
iOS Compass Heading
iOS Angle